Starlink 30861

operational
NORAD ID: 58230 Int'l Des: 2023-171 Owner: SPXS Country: US Constellation: starlink
LEOCIRCULAR

关于 Starlink 30861

正在加载描述...

实时位置

正在加载3D地球...

即将过境

高度历史

Altitude vs Time

uPlot chart will show altitude changes over time

两行轨道根数

1 58230U 23171A 25258.44590644 .00002740 00000-0 21781-3 0 9995
2 58230 43.0033 158.2837 0000477 314.4759 45.6045 15.02536904103360
Epoch: Sep 15, 2025 • Age: 17 hours

当前状态

高度 564.9 km
速度 7.58 km/s
星下点 -24.91°S, 68.04°E
发射日期 Nov 8, 2023
运行时间 1.8 years
类型 internet

技术详情

分类 Payload
质量 730.00 kg
干质量 700.00 kg
总质量 730.00 kg
长度 0.30 m
直径 4.10 m
跨度 29.00 m
形状 Box + pan
制造商 SPXS
平台类型 Starlink V2M
阶段状态 In Orbit
所有者/国家 SPXS/US

大型星座

Loading constellations...